TimeCDT,TemperatureF,Dew PointF,Humidity,Sea Level PressureIn,VisibilityMPH,Wind Direction,Wind SpeedMPH,Gust SpeedMPH,PrecipitationIn,Events,Conditions,WindDirDegrees,DateUTC
12:15 AM,71.2,66.0,84,30.09,7.0,SE,4.6,-,N/A,,Clear,130,2013-06-22 05:15:00
12:35 AM,70.9,65.3,82,30.09,7.0,SE,3.5,-,N/A,,Clear,140,2013-06-22 05:35:00
12:55 AM,70.2,64.4,82,30.08,5.0,SE,5.8,-,N/A,,Haze,130,2013-06-22 05:55:00
1:15 AM,69.8,64.2,82,30.07,5.0,SE,5.8,-,N/A,,Haze,140,2013-06-22 06:15:00
1:35 AM,70.2,65.7,86,30.06,5.0,SSE,5.8,-,N/A,,Clear,160,2013-06-22 06:35:00
1:55 AM,70.2,67.1,90,30.05,5.0,SSE,4.6,-,N/A,,Clear,160,2013-06-22 06:55:00
2:15 AM,70.7,67.6,90,30.04,5.0,South,6.9,-,N/A,,Clear,170,2013-06-22 07:15:00
2:35 AM,70.3,67.8,92,30.03,5.0,South,5.8,-,N/A,,Clear,170,2013-06-22 07:35:00
2:55 AM,70.7,68.0,91,30.04,5.0,South,5.8,-,N/A,,Clear,170,2013-06-22 07:55:00
3:15 AM,70.7,68.2,92,30.04,5.0,South,4.6,-,N/A,,Clear,180,2013-06-22 08:15:00
3:35 AM,71.1,68.5,92,30.04,5.0,South,6.9,-,N/A,,Clear,170,2013-06-22 08:35:00
3:55 AM,71.2,68.9,92,30.04,5.0,South,6.9,-,N/A,,Clear,170,2013-06-22 08:55:00
4:15 AM,71.6,69.3,92,30.04,5.0,South,6.9,-,N/A,,Clear,190,2013-06-22 09:15:00
4:35 AM,72.5,70.0,92,30.05,5.0,SSW,6.9,-,N/A,,Clear,200,2013-06-22 09:35:00
4:55 AM,72.9,70.2,91,30.06,5.0,SSW,5.8,-,N/A,,Clear,200,2013-06-22 09:55:00
5:15 AM,73.4,70.3,90,30.06,7.0,SSW,8.1,-,N/A,,Clear,210,2013-06-22 10:15:00
5:35 AM,73.9,70.5,89,30.06,5.0,SSW,8.1,-,N/A,,Clear,210,2013-06-22 10:35:00
5:55 AM,74.3,70.3,87,30.06,5.0,SSW,8.1,-,N/A,,Clear,210,2013-06-22 10:55:00
6:15 AM,74.7,70.3,86,30.07,5.0,SSW,6.9,-,N/A,,Haze,210,2013-06-22 11:15:00
6:35 AM,75.2,70.3,85,30.07,5.0,SSW,6.9,-,N/A,,Haze,210,2013-06-22 11:35:00
6:55 AM,75.4,70.5,85,30.08,5.0,SSW,8.1,-,N/A,,Clear,200,2013-06-22 11:55:00
7:15 AM,77.0,70.9,81,30.07,5.0,SSW,9.2,-,N/A,,Haze,200,2013-06-22 12:15:00
7:35 AM,79.5,71.8,77,30.07,7.0,SSW,10.4,-,N/A,,Clear,210,2013-06-22 12:35:00
7:55 AM,80.6,71.2,73,30.08,7.0,SSW,8.1,19.6,N/A,,Clear,210,2013-06-22 12:55:00
8:15 AM,79.9,70.7,73,30.08,5.0,SW,8.1,-,N/A,,Haze,220,2013-06-22 13:15:00
8:35 AM,80.6,71.4,73,30.08,7.0,SSW,11.5,17.3,N/A,,Clear,210,2013-06-22 13:35:00
8:55 AM,82.4,72.0,71,30.08,7.0,SW,13.8,17.3,N/A,,Clear,230,2013-06-22 13:55:00
9:15 AM,82.9,71.6,68,30.07,7.0,SSW,15.0,-,N/A,,Clear,210,2013-06-22 14:15:00
9:35 AM,83.7,71.6,67,30.07,7.0,SSW,12.7,-,N/A,,Clear,210,2013-06-22 14:35:00
9:55 AM,85.1,72.7,66,30.07,5.0,SW,11.5,18.4,N/A,,Haze,230,2013-06-22 14:55:00
10:15 AM,86.0,73.2,65,30.08,5.0,SW,11.5,-,N/A,,Haze,230,2013-06-22 15:15:00
10:35 AM,86.2,72.9,64,30.07,7.0,SSW,9.2,-,N/A,,Clear,210,2013-06-22 15:35:00
10:55 AM,87.3,73.0,62,30.08,5.0,SSW,11.5,-,N/A,,Haze,210,2013-06-22 15:55:00
11:15 AM,87.1,73.2,63,30.08,7.0,SSW,10.4,-,N/A,,Clear,210,2013-06-22 16:15:00
11:35 AM,87.1,72.5,62,30.08,5.0,SSW,9.2,-,N/A,,Haze,210,2013-06-22 16:35:00
11:55 AM,82.8,66.9,59,30.12,7.0,WNW,20.7,32.2,N/A,,Mostly Cloudy,300,2013-06-22 16:55:00
12:15 PM,73.8,66.0,77,30.13,7.0,NW,16.1,32.2,N/A,Rain,Rain,310,2013-06-22 17:15:00
12:35 PM,72.5,68.0,86,30.13,3.0,NW,16.1,25.3,0.07,Rain,Heavy Rain,310,2013-06-22 17:35:00
12:55 PM,71.6,68.5,90,30.12,10.0,NW,10.4,-,0.12,Rain,Rain,320,2013-06-22 17:55:00
1:15 PM,71.2,67.1,87,30.13,10.0,North,3.5,-,N/A,Rain,Rain,360,2013-06-22 18:15:00
1:35 PM,71.2,67.5,88,30.13,10.0,SSE,6.9,-,0.01,Rain,Light Rain,160,2013-06-22 18:35:00
1:55 PM,71.6,67.6,87,30.10,10.0,Calm,Calm,-,0.01,Rain,Light Rain,0,2013-06-22 18:55:00
2:15 PM,71.8,68.4,89,30.09,10.0,South,12.7,-,0.01,Rain,Light Rain,190,2013-06-22 19:15:00
2:35 PM,71.2,67.5,88,30.07,7.0,SSW,8.1,-,0.01,Rain,Light Rain,210,2013-06-22 19:35:00
2:55 PM,71.2,68.0,89,30.04,7.0,South,6.9,-,0.01,Rain,Rain,170,2013-06-22 19:55:00
3:15 PM,71.6,67.6,87,30.02,7.0,South,11.5,-,N/A,Rain,Rain,170,2013-06-22 20:15:00
3:35 PM,73.0,68.2,85,30.00,7.0,SSE,9.2,-,N/A,Rain,Rain,150,2013-06-22 20:35:00
3:55 PM,73.4,67.1,81,29.99,7.0,SSW,11.5,-,N/A,Rain,Rain,200,2013-06-22 20:55:00
4:15 PM,73.9,67.1,79,29.98,7.0,WSW,12.7,-,N/A,Rain,Rain,240,2013-06-22 21:15:00
4:35 PM,73.9,67.6,81,29.99,7.0,WSW,17.3,23.0,N/A,Rain,Heavy Rain,240,2013-06-22 21:35:00
4:55 PM,74.3,67.3,79,30.02,7.0,WSW,3.5,-,N/A,Rain,Rain,240,2013-06-22 21:55:00
5:15 PM,74.5,67.3,78,30.03,7.0,WSW,4.6,-,N/A,Rain,Rain,240,2013-06-22 22:15:00
5:35 PM,74.7,67.8,79,30.04,7.0,SSE,3.5,-,N/A,Rain,Rain,150,2013-06-22 22:35:00
5:55 PM,74.7,66.7,76,30.04,7.0,SSW,3.5,-,N/A,Rain,Rain,210,2013-06-22 22:55:00
6:15 PM,75.2,67.1,76,30.05,7.0,SW,4.6,-,N/A,Rain,Rain,230,2013-06-22 23:15:00
6:35 PM,75.4,66.4,73,30.04,7.0,SSW,5.8,-,N/A,Rain,Heavy Rain,200,2013-06-22 23:35:00
6:55 PM,74.8,66.0,74,30.04,7.0,South,9.2,-,N/A,Rain,Rain,170,2013-06-22 23:55:00
7:15 PM,73.9,66.2,77,30.04,7.0,South,10.4,-,N/A,Rain,Rain,170,2013-06-23 00:15:00
7:35 PM,73.4,65.3,76,30.05,7.0,South,11.5,-,N/A,Rain,Rain,190,2013-06-23 00:35:00
7:55 PM,72.9,65.3,77,30.05,7.0,SSW,6.9,-,N/A,Rain,Rain,200,2013-06-23 00:55:00
8:15 PM,72.5,65.3,78,30.05,5.0,South,9.2,-,N/A,Rain,Heavy Rain,190,2013-06-23 01:15:00
8:35 PM,72.5,65.5,79,30.01,7.0,South,12.7,18.4,N/A,Rain,Rain,190,2013-06-23 01:35:00
8:55 PM,72.0,65.7,80,30.00,7.0,South,10.4,-,N/A,Rain,Heavy Rain,190,2013-06-23 01:55:00
9:15 PM,71.6,65.3,80,30.01,7.0,SW,4.6,-,N/A,Rain,Rain,220,2013-06-23 02:15:00
9:35 PM,70.9,64.9,81,30.01,7.0,West,4.6,-,N/A,Rain,Heavy Rain,280,2013-06-23 02:35:00
9:55 PM,70.0,65.1,85,30.01,7.0,WNW,3.5,-,N/A,Rain,Rain,300,2013-06-23 02:55:00
10:15 PM,68.7,64.4,86,30.01,7.0,North,4.6,-,N/A,Rain,Heavy Rain,360,2013-06-23 03:15:00
10:35 PM,67.6,63.3,86,30.01,7.0,NNE,3.5,-,N/A,Rain,Heavy Rain,20,2013-06-23 03:35:00
10:55 PM,67.1,61.9,83,30.03,7.0,SE,6.9,-,N/A,Rain,Rain,140,2013-06-23 03:55:00
11:15 PM,67.8,63.5,86,30.04,7.0,SSE,5.8,-,N/A,Rain,Rain,150,2013-06-23 04:15:00
11:35 PM,67.6,64.0,88,30.04,7.0,SSE,3.5,-,N/A,Rain,Heavy Rain,150,2013-06-23 04:35:00
11:55 PM,67.5,64.6,90,30.05,7.0,SSE,5.8,-,N/A,Rain,Heavy Rain,150,2013-06-23 04:55:00